This is the latest recevied weather packets stored in our database for station/object EB2EMZ-W. If no packets are shown the sender has not sent any weather packets the latest 10 day(s).
| Time | Temp. | Humidity | Pressure | Rain* | Wind** | Luminosity | Snow |
|---|---|---|---|---|---|---|---|
| 1788163942 | 21.11° C | 56% | 1006 hPa | 0 mm | - | - | - |
| 1788162120 | 19.44° C | 65% | 1006 hPa | 0 mm | - | - | - |
| 1788160300 | 18.33° C | 68% | 1006 hPa | 0 mm | - | - | - |
| 1788158477 | 17.78° C | 70% | 1006 hPa | 0 mm | - | - | - |
| 1788156657 | 17.22° C | 74% | 1006 hPa | 0 mm | - | - | - |
| 1788154835 | 16.67° C | 75% | 1005 hPa | 0 mm | - | - | - |
| 1788153014 | 16.67° C | 73% | 1005 hPa | 0 mm | - | - | - |
| 1788151193 | 16.11° C | 75% | 1005 hPa | 0 mm | - | - | - |
| 1788149372 | 16.11° C | 76% | 1006 hPa | 0 mm | - | - | - |
| 1788147552 | 16.67° C | 75% | 1006 hPa | 0 mm | - | - | - |
| 1788145730 | 16.67° C | 76% | 1006 hPa | 0 mm | - | - | - |
| 1788143910 | 16.67° C | 75% | 1006 hPa | 0 mm | - | - | - |
| 1788142089 | 17.22° C | 75% | 1006 hPa | 0 mm | - | - | - |
| 1788140268 | 17.22° C | 72% | 1006 hPa | 0 mm | - | - | - |
| 1788138447 | 17.78° C | 73% | 1006 hPa | 0 mm | - | - | - |
| 1788136626 | 18.33° C | 72% | 1006 hPa | 0 mm | - | - | - |
| 1788134807 | 18.89° C | 69% | 1006 hPa | 0 mm | - | - | - |
| 1788132985 | 19.44° C | 66% | 1006 hPa | 0 mm | - | - | - |
| 1788043342 | 20.56° C | 58% | 1004 hPa | 0 mm | - | - | - |
| 1788041528 | 20.56° C | 60% | 1004 hPa | 0 mm | - | - | - |
| 1788039721 | 20.56° C | 58% | 1004 hPa | 0 mm | - | - | - |
| 1788037913 | 21.11° C | 56% | 1004 hPa | 0 mm | - | - | - |
| 1788036106 | 21.11° C | 53% | 1004 hPa | 0 mm | - | - | - |
| 1788034299 | 21.67° C | 50% | 1004 hPa | 0 mm | - | - | - |
| 1788032497 | 23.33° C | 43% | 1004 hPa | 0 mm | - | - | - |
* Rain latest hour (hover to see other rain measurements)
** Current wind speed in m/s (hover to see current wind gust speed)